Weather History for KPAH - March, 2013

Change the Weather History Date:

Wednesday, March 20, 2013

  Actual Average Record
Temperature  
Mean Temperature 36 °F 50 °F  
Max Temperature 46 °F 60 °F 83 °F (1948)
Min Temperature 25 °F 39 °F 20 °F (1965)
Degree Days  
Heating Degree Days 29 16  
Month to date heating degree days 465 371  
Since 1 July heating degree days 3576 3667  
Cooling Degree Days 0 0  
Month to date cooling degree days 0 0  
Year to date cooling degree days 0 0  
Moisture  
Dew Point 23 °F    
Average Humidity 60    
Maximum Humidity 76    
Minimum Humidity 43    
Precipitation  
Precipitation 0.00 in 0.12 in 2.26 in (1955)
Month to date precipitation 2.46 2.41  
Year to date precipitation 14.21 10.00  
Snow  
Snow 0.00 in 0.00 in 0.20 in (1996)
Month to date snowfall 0.6 0.5  
Since 1 July snowfall 6.7 9.0  
Snow Depth 0.00 in    
Sea Level Pressure  
Sea Level Pressure 30.16 in    
Wind  
Wind Speed 9 mph (NW)    
Max Wind Speed 22 mph    
Max Gust Speed 28 mph    
Visibility 10 miles    
Events      
T = Trace of Precipitation, MM = Missing Value Source: NWS Daily Summary

Daily Weather History Graph

Daily Weather History Graph

Search for Another Location

Airport or City:

Trip Planner

Search our weather history database for the weather conditions in past years. The results will help you decide how hot, cold, wet, or windy it might be!

Date:

Astronomy

Mar. 20, 2013 Rise Set
Actual Time 6:58 AM CDT 7:07 PM CDT
Civil Twilight 6:32 AM CDT 7:33 PM CDT
Nautical Twilight 6:02 AM CDT 8:03 PM CDT
Astronomical Twilight 5:31 AM CDT 8:34 PM CDT
Moon 12:49 PM CDT (3/20) 2:30 AM CDT (3/20)
Length of Visible Light 13h 00m
Length of Day
12h 08m
First Quarter, 59% of the Moon is Illuminated
Mar 20
First Quarter
Mar 27
Full
Apr 2
Last Quarter
Apr 10
New
Apr 18
First Quarter

Hourly Weather History & Observations

Time (CDT) Temp. Windchill Dew Point Humidity Pressure Visibility Wind Dir Wind Speed Gust Speed Precip Events Conditions
12:53 AM 33.1 °F - 24.1 °F 70% 30.18 in 10.0 mi Calm Calm - N/A   Clear
1:53 AM 30.0 °F 25.2 °F 23.0 °F 75% 30.19 in 10.0 mi SW 4.6 mph - N/A   Clear
2:53 AM 30.9 °F 26.2 °F 21.9 °F 69% 30.18 in 10.0 mi West 4.6 mph - N/A   Clear
3:53 AM 33.1 °F 27.7 °F 23.0 °F 66% 30.17 in 10.0 mi West 5.8 mph - N/A   Clear
4:53 AM 34.0 °F 31.0 °F 23.0 °F 64% 30.16 in 10.0 mi West 3.5 mph - N/A   Clear
5:53 AM 32.0 °F 27.5 °F 24.1 °F 73% 30.17 in 10.0 mi West 4.6 mph - N/A   Clear
6:53 AM 33.1 °F 28.7 °F 25.0 °F 72% 30.20 in 10.0 mi WNW 4.6 mph - N/A   Clear
7:53 AM 35.1 °F 29.3 °F 28.0 °F 76% 30.21 in 10.0 mi WNW 6.9 mph - N/A   Clear
8:53 AM 37.0 °F 30.4 °F 30.9 °F 79% 30.21 in 10.0 mi NW 9.2 mph - N/A   Clear
9:53 AM 39.0 °F 32.8 °F 30.0 °F 70% 30.22 in 10.0 mi NW 9.2 mph - N/A   Mostly Cloudy
10:53 AM 41.0 °F 33.9 °F 28.9 °F 62% 30.24 in 10.0 mi NW 12.7 mph 20.7 mph N/A   Overcast
11:53 AM 39.9 °F 31.4 °F 21.9 °F 49% 30.22 in 10.0 mi NW 16.1 mph 20.7 mph N/A   Overcast
12:53 PM 43.0 °F 37.2 °F 25.0 °F 49% 30.18 in 10.0 mi WNW 10.4 mph - N/A   Overcast
1:53 PM 43.0 °F 35.4 °F 26.1 °F 51% 30.16 in 10.0 mi NW 16.1 mph 25.3 mph N/A   Mostly Cloudy
2:53 PM 43.0 °F 35.1 °F 21.9 °F 43% 30.13 in 10.0 mi NNW 17.3 mph 25.3 mph N/A   Scattered Clouds
3:53 PM 42.1 °F 35.7 °F 21.0 °F 43% 30.12 in 10.0 mi NNW 11.5 mph 20.7 mph N/A   Partly Cloudy
4:53 PM 43.0 °F 37.2 °F 21.0 °F 42% 30.10 in 10.0 mi NNW 10.4 mph 20.7 mph N/A   Scattered Clouds
5:53 PM 39.9 °F 33.4 °F 19.9 °F 45% 30.10 in 10.0 mi North 10.4 mph - N/A   Clear
6:53 PM 36.0 °F 29.6 °F 19.9 °F 52% 30.11 in 10.0 mi North 8.1 mph - N/A   Clear
7:53 PM 33.1 °F 24.4 °F 19.0 °F 56% 30.12 in 10.0 mi North 11.5 mph - N/A   Clear
8:53 PM 32.0 °F 24.2 °F 18.0 °F 56% 30.13 in 10.0 mi North 9.2 mph - N/A   Clear
9:53 PM 28.9 °F 21.1 °F 17.1 °F 61% 30.13 in 10.0 mi North 8.1 mph - N/A   Clear
10:53 PM 28.0 °F 20.8 °F 16.0 °F 61% 30.13 in 10.0 mi North 6.9 mph - N/A   Clear
11:53 PM 27.0 °F 21.6 °F 15.1 °F 61% 30.13 in 10.0 mi North 4.6 mph - N/A   Clear